FW2818 Weather Reports


time (UTC)temp
C
wind
direction
speed
KPH
gust
KPH
rain 1hr
cm
rain 24hr
cm
rain mn
cm
humidity
%
barometer
mb
20260503220509 18 232 8.0 22.5 0.00 0.00 0.00 58 1011.1
20260503220009 17 244 11.3 20.9 0.00 0.00 0.00 60 1011.0
20260503215008 18 223 12.9 22.5 0.00 0.00 0.00 60 1011.1
20260503214508 18 216 4.8 20.9 0.00 0.00 0.00 59 1011.2
20260503214009 18 217 12.9 22.5 0.00 0.00 0.00 60 1011.1
20260503213008 18 213 9.7 20.9 0.00 0.00 0.00 59 1011.0
20260503212509 18 275 11.3 24.1 0.00 0.00 0.00 60 1011.1
20260503211007 18 232 17.7 24.1 0.00 0.00 0.00 60 1010.9
20260503210007 18 218 17.7 25.7 0.00 0.00 0.00 58 1010.9
20260503205507 18 222 16.1 20.9 0.00 0.00 0.00 58 1010.9
20260503205008 18 234 8.0 24.1 0.00 0.00 0.00 60 1011.0
20260503204506 18 360 8.0 24.1 0.00 0.00 0.00 58 1010.8
20260503204012 18 226 4.8 22.5 0.00 0.00 0.00 58 1011.0
20260503203507 18 248 17.7 22.5 0.00 0.00 0.00 59 1010.9
20260503203006 17 168 11.3 22.5 0.00 0.00 0.00 60 1010.9
20260503202507 17 196 4.8 27.4 0.00 0.00 0.00 61 1010.9
20260503202006 17 258 12.9 27.4 0.00 0.00 0.00 59 1010.9
20260503201510 18 219 9.7 25.7 0.00 0.00 0.00 60 1011.0
20260503200506 17 360 6.4 22.5 0.00 0.00 0.00 61 1011.1
20260503200005 17 360 14.5 22.5 0.00 0.00 0.00 61 1011.1
20260503195005 17 233 6.4 22.5 0.00 0.00 0.00 63 1011.3
20260503194506 16 360 8.0 22.5 0.00 0.00 0.00 63 1011.3
20260503194005 16 360 9.7 25.7 0.00 0.00 0.00 64 1011.2
20260503193504 16 311 16.1 25.7 0.00 0.00 0.00 64 1011.3
20260503193006 16 187 19.3 25.7 0.00 0.00 0.00 64 1011.2
20260503191504 17 215 22.5 25.7 0.00 0.00 0.00 62 1011.5
20260503191003 17 360 9.7 22.5 0.00 0.00 0.00 62 1011.5
20260503190504 16 168 9.7 19.3 0.00 0.00 0.00 64 1011.4
20260503185504 16 193 11.3 25.7 0.00 0.00 0.00 66 1011.5
20260503185003 16 192 11.3 25.7 0.00 0.00 0.00 66 1011.5
20260503184504 16 207 17.7 22.5 0.00 0.00 0.00 68 1011.5
20260503184003 15 152 6.4 22.5 0.00 0.00 0.00 71 1011.5
20260503183503 15 161 8.0 20.9 0.00 0.00 0.00 71 1011.5
20260503183003 15 360 9.7 20.9 0.00 0.00 0.00 72 1011.6
20260503182005 15 239 17.7 30.6 0.00 0.00 0.00 72 1011.6
20260503181504 15 218 4.8 30.6 0.00 0.00 0.00 71 1011.5
20260503181002 15 188 17.7 22.5 0.00 0.00 0.00 72 1011.5
20260503180502 15 193 11.3 22.5 0.00 0.00 0.00 73 1011.4
20260503180005 15 237 4.8 22.5 0.00 0.00 0.00 73 1011.5
20260503175502 15 206 14.5 20.9 0.00 0.00 0.00 73 1011.5
20260503175002 15 360 12.9 22.5 0.00 0.00 0.00 73 1011.4
20260503174501 15 175 17.7 22.5 0.00 0.00 0.00 73 1011.4
20260503174001 15 189 6.4 22.5 0.00 0.00 0.00 73 1011.3
20260503173502 14 207 3.2 22.5 0.00 0.00 0.00 74 1011.3
20260503173001 14 194 14.5 24.1 0.00 0.00 0.00 74 1011.2
20260503172501 15 196 8.0 24.1 0.00 0.00 0.00 73 1011.2
20260503172001 15 148 8.0 25.7 0.00 0.00 0.00 73 1011.2
20260503171501 15 193 11.3 25.7 0.00 0.00 0.00 73 1011.2
20260503171000 15 150 16.1 20.9 0.00 0.00 0.00 73 1011.2
20260503170500 15 173 16.1 24.1 0.00 0.00 0.00 73 1011.1
20260503150957 12 184 6.4 19.3 0.00 0.00 0.00 78 1010.8
20260503150457 12 220 14.5 19.3 0.00 0.00 0.00 79 1010.8
20260503130954 12 196 8.0 17.7 0.00 0.00 0.00 79 1009.4
20260503110450 12 221 9.7 16.1 0.00 0.00 0.00 80 1009.4
20260503090446 12 238 14.5 24.1 0.00 0.00 0.00 80 1009.7
20260503081445 12 200 14.5 19.3 0.00 0.00 0.00 81 1009.8
20260503080945 12 225 4.8 14.5 0.00 0.00 0.00 81 1009.9
20260503080446 12 214 11.3 16.1 0.00 0.00 0.00 81 1009.9
20260503072513 12 242 6.4 12.9 0.00 0.00 0.00 81 1010.1
20260503072017 12 177 3.2 16.1 0.00 0.00 0.00 81 1010.1
20260503071013 12 178 11.3 19.3 0.00 0.00 0.00 81 1010.1
20260503070514 12 360 9.7 17.7 0.00 0.00 0.00 81 1010.2
20260503055011 12 360 8.0 19.3 0.00 0.00 0.00 80 1010.6
20260503054011 12 213 6.4 17.7 0.00 0.00 0.00 80 1010.6
20260503052511 12 186 9.7 17.7 0.00 0.00 0.00 79 1010.7
20260503052010 12 200 8.0 19.3 0.00 0.00 0.00 79 1010.7
20260503051510 12 167 17.7 19.3 0.00 0.00 0.00 79 1010.8
20260503051009 12 176 6.4 19.3 0.00 0.00 0.00 79 1010.7
20260503050511 12 232 4.8 16.1 0.00 0.00 0.00 79 1010.7
20260503044510 12 360 8.0 19.3 0.00 0.00 0.00 79 1010.5
20260503044008 12 174 8.0 19.3 0.00 0.00 0.00 80 1010.4
20260503043508 12 158 9.7 14.5 0.00 0.00 0.00 80 1010.5
20260503043010 12 198 4.8 19.3 0.00 0.00 0.00 80 1010.3
20260503042508 12 206 9.7 19.3 0.00 0.00 0.00 80 1010.3
20260503042008 12 227 4.8 14.5 0.00 0.00 0.00 80 1010.3
20260503041509 12 184 3.2 14.5 0.00 0.00 0.00 80 1010.3
20260503041008 12 263 6.4 14.5 0.00 0.00 0.00 80 1010.3
20260503035507 12 242 6.4 14.5 0.00 0.00 0.00 79 1010.2
20260503035008 12 184 8.0 17.7 0.00 0.00 0.00 79 1010.1
20260503034508 12 185 4.8 17.7 0.00 0.00 0.00 79 1010.1
20260503033007 12 178 3.2 12.9 0.00 0.00 0.00 79 1009.9
20260503032506 12 237 6.4 20.9 0.00 0.00 0.00 79 1009.8
20260503032006 12 199 6.4 20.9 0.00 0.00 0.00 79 1009.8
20260503031506 12 229 14.5 20.9 0.00 0.00 0.00 79 1009.7
20260503031006 13 232 16.1 16.1 0.00 0.00 0.00 78 1009.6
20260503030006 13 201 9.7 22.5 0.00 0.00 0.00 78 1009.5
20260503025506 13 240 12.9 22.5 0.00 0.00 0.00 77 1009.4
20260503025008 13 275 3.2 17.7 0.00 0.00 0.00 76 1009.5
20260503024005 13 184 6.4 19.3 0.00 0.00 0.00 76 1009.4
20260503023506 13 209 6.4 22.5 0.00 0.00 0.00 75 1009.4
20260503023005 13 201 6.4 22.5 0.00 0.00 0.00 75 1009.4
20260503022005 13 238 16.1 24.1 0.00 0.00 0.00 73 1009.4
20260503021506 13 206 9.7 25.7 0.00 0.00 0.00 73 1009.4
20260503021005 13 234 9.7 25.7 0.00 0.00 0.00 72 1009.4
20260503020505 14 171 12.9 25.7 0.00 0.00 0.00 72 1009.3
20260503020004 14 236 25.7 25.7 0.00 0.00 0.00 71 1009.3
20260503015504 14 238 14.5 25.7 0.00 0.00 0.00 71 1009.3
20260503015006 14 192 9.7 25.7 0.00 0.00 0.00 71 1009.3
20260503014004 15 184 9.7 25.7 0.00 0.00 0.00 71 1009.3
20260503013505 15 244 12.9 25.7 0.00 0.00 0.00 70 1009.3
20260503013004 15 254 14.5 24.1 0.00 0.00 0.00 70 1009.4
20260503012504 15 209 11.3 24.1 0.00 0.00 0.00 70 1009.3
20260503012003 15 235 14.5 22.5 0.00 0.00 0.00 70 1009.4
20260503011504 15 236 11.3 22.5 0.00 0.00 0.00 69 1009.3
20260503011003 15 246 17.7 24.1 0.00 0.00 0.00 69 1009.3
20260503010503 15 261 17.7 24.1 0.00 0.00 0.00 69 1009.3
20260503010002 15 222 6.4 25.7 0.00 0.00 0.00 69 1009.3
20260503005503 16 259 20.9 25.7 0.00 0.00 0.00 69 1009.3
20260503004502 16 234 9.7 27.4 0.00 0.00 0.00 67 1009.4
20260503004002 16 212 14.5 25.7 0.00 0.00 0.00 67 1009.3
20260503003502 16 252 11.3 25.7 0.00 0.00 0.00 66 1009.3
20260503003002 16 227 14.5 24.1 0.00 0.00 0.00 66 1009.3
20260503002502 16 213 12.9 22.5 0.00 0.00 0.00 66 1009.3
20260503002001 17 232 9.7 27.4 0.00 0.00 0.00 65 1009.4
20260503001502 17 200 12.9 27.4 0.00 0.00 0.00 64 1009.4
20260503001001 17 360 4.8 24.1 0.00 0.00 0.00 64 1009.4
20260503000501 17 200 4.8 24.1 0.00 0.00 0.00 64 1009.4
20260502235500 17 227 9.7 25.7 0.00 0.00 0.00 64 1009.5
20260502235000 17 289 11.3 24.1 0.00 0.00 0.00 64 1009.6
20260502234000 17 181 6.4 25.7 0.00 0.00 0.00 64 1009.6
20260502233501 17 200 12.9 25.7 0.00 0.00 0.00 63 1009.7
20260502233000 17 230 6.4 24.1 0.00 0.00 0.00 64 1009.8
20260502232500 17 200 14.5 24.1 0.00 0.00 0.00 64 1009.8
20260502231959 17 167 12.9 27.4 0.00 0.00 0.00 63 1009.7
20260502231459 17 219 11.3 27.4 0.00 0.00 0.00 63 1009.8
20260502230959 17 234 16.1 30.6 0.00 0.00 0.00 62 1009.9
20260502230459 17 219 6.4 30.6 0.00 0.00 0.00 62 1010.0
20260502225959 18 202 14.5 25.7 0.00 0.00 0.00 62 1010.1
20260502225459 18 186 14.5 24.1 0.00 0.00 0.00 62 1010.1
20260502224959 18 172 14.5 25.7 0.00 0.00 0.00 61 1010.2
20260502224458 18 180 11.3 33.8 0.00 0.00 0.00 62 1010.3
20260502223958 17 178 16.1 33.8 0.00 0.00 0.00 62 1010.3
20260502223500 17 218 12.9 30.6 0.00 0.00 0.00 62 1010.3
20260502222958 17 219 19.3 35.4 0.00 0.00 0.00 63 1010.4
20260502222458 17 209 20.9 35.4 0.00 0.00 0.00 63 1010.4
20260502221459 17 263 20.9 27.4 0.00 0.00 0.00 63 1010.5
20260502220958 17 259 16.1 25.7 0.00 0.00 0.00 64 1010.5